This is the latest recevied weather packets stored in our database for station/object KM4KBD. If no packets are shown the sender has not sent any weather packets the latest 10 day(s).
| Time | Temp. | Humidity | Pressure | Rain* | Wind** | Luminosity | Snow |
|---|---|---|---|---|---|---|---|
| 1777120914 | 17.22° C | 92% | 1017.1 hPa | 0 mm | - | 111 W/m² | - |
| 1777120610 | 17.22° C | 92% | 1017 hPa | 0 mm | - | 105 W/m² | - |
| 1777120306 | 16.67° C | 92% | 1017.4 hPa | 0 mm | - | 100 W/m² | - |
| 1777120006 | 16.67° C | 93% | 1017.5 hPa | 0 mm | - | 118 W/m² | - |
| 1777119703 | 16.67° C | 95% | 1017.3 hPa | 0 mm | - | 131 W/m² | - |
| 1777119399 | 16.11° C | 97% | 1017.3 hPa | 0 mm | - | 135 W/m² | - |
| 1777119099 | 16.11° C | 97% | 1017.1 hPa | 0 mm | - | 104 W/m² | - |
| 1777118795 | 16.11° C | 97% | 1017.1 hPa | 0 mm | - | 81 W/m² | - |
| 1777118492 | 15.56° C | 98% | 1017.3 hPa | 0 mm | - | 74 W/m² | - |
| 1777118187 | 15.56° C | 98% | 1017.2 hPa | 0 mm | - | 67 W/m² | - |
| 1777117884 | 15.56° C | 98% | 1017.2 hPa | 0 mm | - | 64 W/m² | - |
| 1777117581 | 15.56° C | 98% | 1017 hPa | 0 mm | - | 55 W/m² | - |
| 1777117279 | 15.56° C | 98% | 1016.9 hPa | 0 mm | - | 50 W/m² | - |
| 1777116978 | 15.56° C | 98% | 1016.8 hPa | 0 mm | - | 41 W/m² | - |
| 1777116675 | 15.56° C | 98% | 1016.6 hPa | 0 mm | - | 36 W/m² | - |
| 1777116370 | 15.56° C | 98% | 1016.6 hPa | 0 mm | - | 34 W/m² | - |
| 1777116066 | 15.56° C | 99% | 1016.4 hPa | 0 mm | - | 29 W/m² | - |
| 1777115766 | 15.56° C | 99% | 1016.3 hPa | 0 mm | - | 22 W/m² | - |
| 1777115462 | 15° C | 99% | 1016.2 hPa | 0 mm | - | 18 W/m² | - |
| 1777115158 | 15° C | 99% | 1016.6 hPa | 0 mm | - | 13 W/m² | - |
| 1777114856 | 15° C | 99% | 1016.3 hPa | 0 mm | - | 9 W/m² | - |
| 1777114551 | 15° C | 99% | 1016.3 hPa | 0 mm | - | 5 W/m² | - |
| 1777114246 | 15° C | 99% | 1016.2 hPa | 0 mm | - | 3 W/m² | - |
| 1777113943 | 15.56° C | 99% | 1016.1 hPa | 0 mm | - | 1 W/m² | - |
| 1777113639 | 15.56° C | 99% | 1016 hPa | 0 mm | - | 1 W/m² | - |
* Rain latest hour (hover to see other rain measurements)
** Current wind speed in m/s (hover to see current wind gust speed)